Regional Weather Roundup
Issued by NWS Cleveland, OH

Home | Current Version | Previous Version | Text Only | Print | Product List | Glossary Off
Versions: 1 2 3 4 5 6 7 8 9 10 11 12 13 14 15 16 17 18 19 20 21 22 23 24 25 26 27 28 29 30 31 32 33 34 35 36 37 38 39 40 41 42 43 44 45 46 47 48 49 50

000
ASUS41 KCLE 032102
RWRCLE
OHIO REGIONAL WEATHER ROUNDUP
NATIONAL WEATHER SERVICE CLEVELAND, OH
500 PM EDT MON AUG 03 2015

NOTE: "FAIR" INDICATES FEW OR NO CLOUDS BELOW 12,000 FEET WITH NO
SIGNIFICANT WEATHER AND/OR OBSTRUCTIONS TO VISIBILITY.

OHZ001>008-015>018-024>027-034-035-043-044-032200-
   NORTHWEST OHIO

CITY           SKY/WX    TMP DP  RH WIND       PRES   REMARKS
DEFIANCE       MOSUNNY   82  62  50 NW10      29.80F
FINDLAY        CLOUDY    82  66  58 W8        29.80F
TOLEDO EXPRESS MOSUNNY   82  61  48 W10       29.78F
TOLEDO EXEC    PTSUNNY   82  60  47 W13       29.79F
LIMA           MOSUNNY   81  64  56 W14       29.83S
$$

OHZ009>014-019>023-028>033-038-089-032200-
   NORTHEAST OHIO

CITY           SKY/WX    TMP DP  RH WIND       PRES   REMARKS
CLE-HOPKINS    MOSUNNY   82  63  52 W9        29.81F
CLE-LAKEFRONT  SUNNY     78  67  68 NW8       29.79F
CUY CO. ARPT   MOSUNNY   79  63  57 NW12      29.81F
LORAIN-ELYRIA  MOSUNNY   80  62  54 W9        29.80F
ASHTABULA      SUNNY     78  62  57 NW8G18    29.81F
AKRON-CANTON   MOSUNNY   83  62  49 W13       29.81F
WOOSTER        MOSUNNY   81  65  58 W14       29.82F
MANSFIELD      MOSUNNY   80  65  59 W12G21    29.83F
YOUNGSTOWN     PTSUNNY   79  62  56 N10       29.81S
$$

OHZ042-051>053-060>062-070>072-077>081-032200-
  SOUTHWEST OHIO

CITY           SKY/WX    TMP DP  RH WIND       PRES   REMARKS
CINC-COVINGTON PTSUNNY   86  68  54 W9        29.86F
CINC-LUNKEN    MOSUNNY   86  69  56 W10       29.84F HX  90
HAMILTON       MOSUNNY   82  69  64 S3        29.84F
DAYTON         CLOUDY    78  70  76 SW9       29.85F
WRIGHT-PAT AFB PTSUNNY   78  69  73 W8        29.84S
DAYTON GENERAL PTSUNNY   81  67  62 SW5       29.86S
WILMINGTON     MOSUNNY   80  67  64 SW13      29.86R
$$

OHZ036-037-039>041-045>050-054>059-063>069-073>076-082>088-032200-
  CENTRAL AND SOUTHEAST OHIO

CITY           SKY/WX    TMP DP  RH WIND       PRES   REMARKS
COLUMBUS       PTSUNNY   83  67  58 W15       29.83S
OSU AIRPORT    MOSUNNY   81  67  62 W14G22    29.84S
BOLTON FIELD   NOT AVBL
RICKENBACK AFB MOSUNNY   81  68  64 W14       29.84R
NEWARK         MOSUNNY   84  67  56 SW18      29.83S
MARION         MOSUNNY   83  65  54 W12       29.83F
LANCASTER      MOSUNNY   82  68  62 W14       29.85S
ZANESVILLE     MOSUNNY   84  63  49 SW14      29.83S
NEW PHILLY     PTSUNNY   80  69  69 W6        29.82F
$$


USA.gov is the U.S. government's official web portal to all federal, state and local government web resources and services.